Location: Ottawa
(45.4170°N, 75.7000°W)
Time: 02:44:52
(UTC-04:00)

ISS - Visible Passes

Search period start: 22 October 2019 00:00
Search period end: 01 November 2019 00:00
Orbit: 411 x 421 km, 51.6° (Epoch: 22 October)

Date Brightness Start Highest point End Pass type
(mag) Time Alt. Az. Time Alt. Az. Time Alt. Az.
23 Oct -0.4 06:15:24 10° SE 06:16:07 11° SE 06:16:50 10° ESE visible
24 Oct -2.4 07:00:33 10° SW 07:03:46 42° SE 07:06:57 10° ENE visible
25 Oct -1.7 06:12:25 10° SSW 06:15:17 26° SE 06:18:08 10° E visible
26 Oct -1.2 05:25:34 14° SSE 05:26:50 16° SE 05:29:01 10° E visible
26 Oct -3.8 06:59:49 10° WSW 07:03:11 83° NNW 07:06:35 10° ENE visible
27 Oct -3.4 06:12:29 21° SW 06:14:35 63° SSE 06:17:56 10° ENE visible
28 Oct -2.5 05:26:18 37° SE 05:26:18 37° SE 05:29:12 10° ENE visible
28 Oct -3.2 06:59:30 10° W 07:02:45 43° NNW 07:06:00 10° NE visible
29 Oct -0.3 04:39:59 12° E 04:39:59 12° E 04:40:17 10° E visible
29 Oct -3.7 06:12:53 36° W 06:14:02 60° NNW 06:17:23 10° ENE visible
30 Oct -2.5 05:26:27 40° ENE 05:26:27 40° ENE 05:28:44 10° ENE visible
30 Oct -2.6 06:59:21 10° WNW 07:02:24 30° N 07:05:26 10° NE visible
31 Oct -0.2 04:39:55 11° ENE 04:39:55 11° ENE 04:40:02 10° ENE visible
31 Oct -2.9 06:12:49 31° NW 06:13:35 36° NNW 06:16:44 10° NE visible
